Location: ASU Dark Sky Observatory
(36.2504°N, 81.4125°W)
Time: 20:25:11
(UTC-04:00)

Amateur Radio Satellites - All Passes

Search period start: 30 August 2016 19:55
Search period end: 31 August 2016 19:55
Location: ASU Dark Sky Observatory, 36.2504°N, 81.4125°W

Satellite Date Start Highest point End Downlink Frequencies (MHz)
Time Altitude Azimuth
BEESAT 2 30 Aug 19:57:10 20:00:45 32° 247° (WSW) 20:04:19 435.950
CUBESAT XI-V 30 Aug 20:00:02 20:02:35 15° 295° (WNW) 20:05:08 437.345
BRITE-PL 30 Aug 20:01:34 20:02:36 11° 273° (W) 20:03:39 437.365/2234.400
YUBILEINY 30 Aug 20:02:57 20:08:35 19° 280° (W) 20:14:14 435.215
HO-68 30 Aug 20:04:32 20:11:29 54° 69° (ENE) 20:18:26 435.675
Cosmos 2504 30 Aug 20:04:48 20:11:33 46° 270° (W) 20:18:21 435.465 / 435.565
LilacSat-2 30 Aug 20:09:22 20:10:45 12° 268° (W) 20:12:08 437.200
BEESAT 3 30 Aug 20:10:32 20:11:48 11° 252° (WSW) 20:13:03 437.485
SEEDS 30 Aug 20:20:02 20:23:45 33° 72° (ENE) 20:27:30 437.485
AIST 1 30 Aug 20:28:59 20:33:07 38° 79° (E) 20:37:10
NOAA 18 30 Aug 20:31:43 20:34:47 15° 267° (W) 20:37:51 137.9125
AAUSAT CUBESAT 2 30 Aug 20:41:31 20:45:07 31° 72° (ENE) 20:48:45 437.432
DOVE 4 30 Aug 20:45:03 20:48:46 20° 268° (W) 20:52:34 437.250
UWE-3 30 Aug 20:46:42 20:50:20 24° 70° (ENE) 20:53:55 435.000/436.395/437.385
CANX-2 30 Aug 20:48:02 20:52:11 63° 259° (W) 20:56:22 2200.000
PCSat 30 Aug 20:51:32 20:56:42 43° 58° (ENE) 21:01:50 145.827
COMPASS 1 30 Aug 20:52:31 20:56:32 55° 75° (ENE) 21:00:35 437.405
CUTE 1.7 + AOD 2 30 Aug 20:53:27 20:57:36 63° 259° (W) 21:01:47 437.475
ZACube-1 30 Aug 20:54:17 20:57:16 18° 68° (ENE) 21:00:14 437.345
CUBEBUG 2 30 Aug 20:55:19 20:59:47 46° 74° (ENE) 21:04:08 437.445
AIST 2 30 Aug 20:59:01 21:02:58 39° 56° (NE) 21:06:53 435.215
CINEMA 3 30 Aug 20:59:53 21:04:39 44° 261° (W) 21:09:24 145.822/145.860
STRAND 1 30 Aug 21:01:20 21:06:25 71° 285° (WNW) 21:11:30 437.568
PRISM 30 Aug 21:22:15 21:25:12 19° 95° (E) 21:28:09 437.425
DELFI C3 30 Aug 21:51:35 21:55:00 29° 72° (ENE) 21:58:26 145.870
Oscar 11 30 Aug 21:53:13 21:57:31 86° 81° (E) 22:01:50 145.826/435.025
HO-68 30 Aug 21:53:40 21:59:26 26° 265° (W) 22:05:14 435.675
SEEDS 30 Aug 21:56:52 21:59:31 16° 266° (W) 22:02:12 437.485
FUNcube-1 30 Aug 22:05:19 22:09:45 73° 259° (W) 22:14:05 145.935
AIST 1 30 Aug 22:07:54 22:10:17 15° 274° (W) 22:12:41
AAUSAT CUBESAT 2 30 Aug 22:17:54 22:20:37 17° 266° (W) 22:23:23 437.432
GONETS M04 30 Aug 22:20:54 22:27:38 23° 69° (ENE) 22:34:18
AUBIESAT-1 30 Aug 22:22:06 22:23:36 11° 59° (ENE) 22:25:06 437.475
UWE-3 30 Aug 22:22:45 22:26:39 27° 264° (W) 22:30:28 435.000/436.395/437.385
M-CUBED/EXP-1 PRIME 30 Aug 22:29:07 22:32:10 17° 61° (ENE) 22:35:12 437.505
ZACube-1 30 Aug 22:29:12 22:33:17 35° 262° (W) 22:37:18 437.345
CUBEBUG 2 30 Aug 22:33:55 22:36:33 15° 267° (W) 22:39:10 437.445
PCSat 30 Aug 22:35:38 22:39:46 23° 254° (WSW) 22:43:53 145.827
AIST 2 30 Aug 22:38:28 22:41:06 16° 251° (WSW) 22:43:44 435.215
TIGRISAT 30 Aug 22:44:24 22:46:44 14° 93° (E) 22:49:03 435.000
HUMSAT D 30 Aug 22:44:55 22:49:01 63° 76° (ENE) 22:53:06 437.325/437.525
ESTCUBE 1 30 Aug 22:48:46 22:49:55 11° 64° (ENE) 22:51:04 437.505/2401.250
PRISM 30 Aug 22:56:51 23:00:31 30° 289° (WNW) 23:04:10 437.425
Cosmos 2499 30 Aug 22:59:01 23:04:51 27° 73° (ENE) 23:10:46 435.465 / 435.565
UNISAT 6 30 Aug 23:12:54 23:16:48 34° 98° (E) 23:20:39 437.425
CUBEBUG 1 30 Aug 23:20:40 23:23:21 16° 66° (ENE) 23:26:02 437.445
O/OREOS (USA 219) 30 Aug 23:21:20 23:25:18 28° 63° (ENE) 23:29:15 437.305
DELFI C3 30 Aug 23:27:19 23:29:52 17° 266° (W) 23:32:26 145.870
VELOX 1 30 Aug 23:27:51 23:30:32 16° 66° (ENE) 23:33:13 145.980
SO-50 30 Aug 23:32:12 23:37:05 86° 300° (WNW) 23:41:56 436.795
DX 1 30 Aug 23:34:12 23:35:56 12° 64° (ENE) 23:37:40 434.975-435.025
RS-15 30 Aug 23:47:13 23:55:13 22° 100° (E) 00:03:26 29.354- 29.394
QB50P2 30 Aug 23:47:33 23:48:22 10° 91° (E) 23:49:10 145.880/145.840
ANTELSAT 30 Aug 23:49:26 23:53:43 85° 280° (W) 23:57:58 437.575/2403.000
POLYITAN 1 30 Aug 23:49:59 23:50:51 11° 91° (E) 23:51:44 437.675
AUBIESAT-1 30 Aug 23:52:47 23:57:24 76° 253° (WSW) 00:02:03 437.475
NANOSAT C BR1 30 Aug 23:54:45 23:56:08 11° 92° (E) 23:57:31 145.865
DANDE 30 Aug 23:54:50 23:56:19 14° 89° (E) 23:57:52 436.750
M-CUBED/EXP-1 PRIME 31 Aug 00:01:43 00:06:14 49° 256° (WSW) 00:10:49 437.505
CUSAT 1 31 Aug 00:04:50 00:07:44 54° 282° (WNW) 00:11:23 437.405
UKube-1 31 Aug 00:06:08 00:09:24 21° 68° (ENE) 00:12:41 .
AISAT 31 Aug 00:15:14 00:19:35 57° 74° (ENE) 00:24:00 437.250
JAS-2 31 Aug 00:15:16 00:20:23 20° 93° (E) 00:25:44 435.910
GONETS M04 31 Aug 00:16:22 00:25:09 69° 268° (W) 00:33:52
TIGRISAT 31 Aug 00:19:36 00:23:35 39° 287° (WNW) 00:27:31 435.000
ESTCUBE 1 31 Aug 00:21:41 00:26:07 65° 259° (WSW) 00:30:35 437.505/2401.250
PHONESAT 2.4 31 Aug 00:31:23 00:34:12 37° 152° (SSE) 00:37:01 2401.200-2431.200
QB50P1 31 Aug 00:38:40 00:42:41 43° 99° (E) 00:46:40 145.935-145.965
POPSAT HIP 1 31 Aug 00:48:57 00:53:06 57° 100° (E) 00:57:12 437.405
50 SAT 31 Aug 00:50:02 00:53:30 48° 260° (W) 00:56:59 437.505
UNISAT 6 31 Aug 00:50:25 00:53:14 17° 292° (WNW) 00:56:02 437.425
Cosmos 2499 31 Aug 00:51:29 00:58:06 45° 270° (W) 01:04:54 435.465 / 435.565
CUBEBUG 1 31 Aug 00:55:06 00:59:15 41° 261° (W) 01:03:27 437.445
SPROUT 31 Aug 00:55:38 00:59:56 77° 76° (ENE) 01:04:16 437.525
O/OREOS (USA 219) 31 Aug 01:00:51 01:04:34 24° 258° (WSW) 01:08:15 437.305
VELOX 1 31 Aug 01:02:24 01:06:36 42° 261° (W) 01:10:51 145.980
TISAT 1 31 Aug 01:03:09 01:06:05 18° 68° (ENE) 01:09:02 437.305
DX 1 31 Aug 01:07:19 01:11:36 55° 259° (W) 01:15:55 434.975-435.025
DUCHIFAT 1 31 Aug 01:12:19 01:16:30 83° 285° (WNW) 01:20:40 145.980
SO-50 31 Aug 01:16:22 01:18:14 12° 317° (NW) 01:20:07 436.795
QB50P2 31 Aug 01:20:20 01:24:27 53° 286° (WNW) 01:28:31 145.880/145.840
POLYITAN 1 31 Aug 01:22:51 01:26:56 52° 286° (WNW) 01:31:00 437.675
NANOSAT C BR1 31 Aug 01:28:04 01:32:07 48° 286° (WNW) 01:36:08 145.865
Oscar 19 31 Aug 01:34:08 01:35:58 12° 91° (E) 01:37:48 437.125/150
UKube-1 31 Aug 01:41:30 01:45:15 29° 263° (W) 01:49:01 .
ITUPSAT 1 31 Aug 01:48:56 01:50:38 12° 63° (ENE) 01:52:20 437.325
BUGSAT 1 31 Aug 01:52:38 01:56:44 67° 284° (WNW) 02:00:44 437.445
RS-15 31 Aug 01:54:31 02:06:01 85° 300° (WNW) 02:18:13 29.354- 29.394
AISAT 31 Aug 01:55:08 01:56:23 11° 269° (W) 01:57:38 437.250
JAS-2 31 Aug 01:58:38 02:05:41 72° 286° (WNW) 02:13:22 435.910
PHONESAT 2.4 31 Aug 02:07:35 02:10:31 48° 348° (NNW) 02:13:25 2401.200-2431.200
QB50P1 31 Aug 02:15:53 02:18:03 14° 294° (WNW) 02:20:13 145.935-145.965
SWISSCUBE 31 Aug 02:17:23 02:21:21 27° 69° (ENE) 02:25:20 437.505
POPSAT HIP 1 31 Aug 02:27:19 02:28:20 11° 295° (WNW) 02:29:21 437.405
BEESAT 31 Aug 02:33:40 02:37:59 36° 71° (ENE) 02:42:20 436.000
TISAT 1 31 Aug 02:37:39 02:41:28 32° 262° (W) 02:45:19 437.305
Oscar 19 31 Aug 03:10:33 03:15:44 70° 286° (WNW) 03:20:53 437.125/150
Gurwin Techsat 1B 31 Aug 03:10:58 03:16:10 52° 100° (E) 03:21:19 435.225
KKS-1 31 Aug 03:22:00 03:23:34 12° 64° (ENE) 03:25:09 437.445
ITUPSAT 1 31 Aug 03:23:08 03:27:52 67° 258° (WSW) 03:32:37 437.325
PHONESAT 2.4 31 Aug 03:44:22 03:47:09 34° 3° (N) 03:49:57 2401.200-2431.200
JAS-2 31 Aug 03:47:05 03:49:41 12° 301° (WNW) 03:52:22 435.910
STARS 31 Aug 03:48:24 03:49:18 11° 63° (ENE) 03:50:12 437.465
AO-7 31 Aug 03:51:47 03:57:47 22° 94° (E) 04:03:44 29.400- 29.500
MOZHAYETS 4 31 Aug 03:51:49 03:55:52 32° 71° (ENE) 03:59:55
SWISSCUBE 31 Aug 03:55:03 03:59:02 27° 263° (W) 04:03:04 437.505
Cosmos 2491 31 Aug 03:59:26 04:03:02 13° 62° (ENE) 04:06:37 435.465 / 435.565
RS-15 31 Aug 04:10:58 04:20:32 28° 325° (NW) 04:30:29 29.354- 29.394
BEESAT 31 Aug 04:12:22 04:15:50 20° 265° (W) 04:19:19 436.000
ITAMSAT 1 31 Aug 04:32:45 04:37:57 87° 284° (WNW) 04:43:08 435.822/435.867
Gurwin Techsat 1B 31 Aug 04:52:09 04:55:39 18° 295° (WNW) 04:59:07 435.225
KKS-1 31 Aug 04:55:09 04:59:34 61° 259° (W) 05:04:02 437.445
YUBILEINY 31 Aug 05:09:24 05:14:18 16° 78° (ENE) 05:19:13 435.215
AO-85 31 Aug 05:10:33 05:15:54 88° 120° (ESE) 05:21:01 145.980
STARS 31 Aug 05:20:39 05:25:03 66° 258° (WSW) 05:29:29 437.465
PHONESAT 2.4 31 Aug 05:20:42 05:23:42 84° 22° (NNE) 05:26:41 2401.200-2431.200
CUBESAT XI-V 31 Aug 05:21:49 05:26:01 37° 72° (ENE) 05:30:16 437.345
MOZHAYETS 4 31 Aug 05:29:41 05:33:03 20° 266° (W) 05:36:26
AO-7 31 Aug 05:42:52 05:51:07 72° 291° (WNW) 05:59:20 29.400- 29.500
Cosmos 2491 31 Aug 05:52:33 06:01:25 75° 82° (E) 06:10:15 435.465 / 435.565
HORYU 2 31 Aug 06:10:56 06:15:11 46° 100° (E) 06:19:24 437.375
BRITE-PL 31 Aug 06:26:20 06:31:25 33° 95° (E) 06:36:17 437.365/2234.400
RS-15 31 Aug 06:32:55 06:39:22 15° 1° (N) 06:45:53 29.354- 29.394
STRAND 1 31 Aug 06:38:28 06:40:59 14° 63° (ENE) 06:43:30 437.568
Cosmos 2504 31 Aug 06:47:12 06:53:51 27° 85° (E) 07:00:09 435.465 / 435.565
AO-85 31 Aug 06:54:18 06:56:57 14° 315° (NW) 06:59:33 145.980
PHONESAT 2.4 31 Aug 06:57:46 06:59:45 16° 214° (SW) 07:01:44 2401.200-2431.200
CUBESAT XI-V 31 Aug 07:00:18 07:03:29 18° 266° (W) 07:06:42 437.345
YUBILEINY 31 Aug 07:00:59 07:09:50 87° 277° (W) 07:18:44 435.215
DOVE 4 31 Aug 07:09:44 07:12:19 14° 90° (E) 07:14:50 437.250
NOAA 18 31 Aug 07:13:26 07:18:18 32° 98° (E) 07:23:07 137.9125
GOMX 1 31 Aug 07:20:46 07:25:54 48° 98° (E) 07:30:43 467.674
ISS 31 Aug 07:24:59 07:28:05 42° 134° (SE) 07:31:13 145.825
NOAA 15 31 Aug 07:28:58 07:34:18 70° 102° (ESE) 07:39:35 137.62
Cubesat XI-IV 31 Aug 07:29:53 07:35:06 54° 101° (E) 07:40:17 437.490
AO-7 31 Aug 07:38:31 07:42:25 14° 309° (NW) 07:46:21 29.400- 29.500
CUTE-I 31 Aug 07:40:25 07:45:44 70° 102° (ESE) 07:51:01 437.470
LilacSat-2 31 Aug 07:42:28 07:46:15 90° 96° (E) 07:50:01 437.200
HORYU 2 31 Aug 07:48:55 07:51:19 15° 295° (WNW) 07:53:43 437.375
Cosmos 2491 31 Aug 07:51:22 07:57:14 20° 280° (W) 08:03:06 435.465 / 435.565
BRITE-PL 31 Aug 08:04:50 08:09:43 30° 291° (WNW) 08:14:27 437.365/2234.400
SO-50 31 Aug 08:06:31 08:10:50 39° 54° (NE) 08:15:02 436.795
STRAND 1 31 Aug 08:14:32 08:19:34 65° 258° (WSW) 08:24:39 437.568
BEESAT 3 31 Aug 08:20:11 08:22:30 15° 109° (ESE) 08:24:50 437.485
CANX-2 31 Aug 08:35:58 08:39:32 26° 96° (E) 08:43:06 2200.000
Cosmos 2504 31 Aug 08:38:33 08:46:45 55° 280° (W) 08:54:26 435.465 / 435.565
COMPASS 1 31 Aug 08:40:24 08:41:26 11° 91° (E) 08:42:26 437.405
CUTE 1.7 + AOD 2 31 Aug 08:41:17 08:44:50 26° 96° (E) 08:48:23 437.475
DOVE 4 31 Aug 08:45:36 08:50:22 50° 287° (WNW) 08:54:49 437.250
RS-15 31 Aug 08:47:45 08:58:05 29° 37° (NE) 09:08:16 29.354- 29.394
NOAA 18 31 Aug 08:54:09 08:58:49 30° 293° (WNW) 09:03:27 137.9125
AIST 1 31 Aug 08:55:45 08:59:21 26° 89° (E) 09:03:00
CINEMA 3 31 Aug 08:57:33 09:01:54 55° 100° (E) 09:06:02 145.822/145.860
CUSAT 1 31 Aug 08:58:26 09:01:15 12° 67° (ENE) 09:04:10 437.405
GOMX 1 31 Aug 08:59:53 09:03:29 19° 295° (WNW) 09:06:57 467.674
ISS 31 Aug 09:02:10 09:04:41 20° 330° (NNW) 09:07:12 145.825
YUBILEINY 31 Aug 09:02:58 09:07:53 16° 296° (WNW) 09:12:50 435.215
NOAA 15 31 Aug 09:10:47 09:13:25 14° 298° (WNW) 09:16:03 137.62
Cubesat XI-IV 31 Aug 09:11:17 09:14:42 18° 296° (WNW) 09:18:07 437.490
HO-68 31 Aug 09:22:21 09:29:31 72° 104° (ESE) 09:36:38 435.675
CUTE-I 31 Aug 09:22:33 09:25:08 14° 298° (WNW) 09:27:43 437.470
SEEDS 31 Aug 09:41:22 09:45:37 85° 281° (W) 09:49:51 437.485
TIGRISAT 31 Aug 09:42:04 09:43:15 11° 65° (ENE) 09:44:26 435.000
PRISM 31 Aug 09:42:54 09:46:57 61° 259° (W) 09:51:02 437.425
Oscar 11 31 Aug 09:43:55 09:46:59 19° 94° (E) 09:50:03 145.826/435.025
BEESAT 2 31 Aug 09:45:51 09:49:46 81° 119° (ESE) 09:53:45 435.950
SO-50 31 Aug 09:47:49 09:50:58 19° 251° (WSW) 09:54:03 436.795
BEESAT 3 31 Aug 09:56:13 09:59:50 36° 304° (NW) 10:03:29 437.485
FUNcube-1 31 Aug 09:56:33 09:59:53 23° 96° (E) 10:03:11 145.935
AAUSAT CUBESAT 2 31 Aug 10:00:56 10:05:08 86° 104° (ESE) 10:09:19 437.432
UNISAT 6 31 Aug 10:09:18 10:12:58 24° 70° (ENE) 10:16:34 437.425
JUGNU 31 Aug 10:10:06 10:12:53 13° 171° (S) 10:15:40 437.505
CANX-2 31 Aug 10:11:55 10:15:14 23° 290° (WNW) 10:18:34 2200.000
COMPASS 1 31 Aug 10:13:10 10:17:14 51° 285° (WNW) 10:21:18 437.405
UWE-3 31 Aug 10:14:18 10:18:28 71° 102° (ESE) 10:22:34 435.000/436.395/437.385
CUTE 1.7 + AOD 2 31 Aug 10:17:12 10:20:32 23° 290° (WNW) 10:23:52 437.475
ZACube-1 31 Aug 10:19:47 10:23:48 49° 99° (E) 10:27:49 437.345
CUBEBUG 2 31 Aug 10:25:20 10:29:24 52° 285° (WNW) 10:33:25 437.445
DANDE 31 Aug 10:30:12 10:35:19 27° 76° (ENE) 10:41:24 436.750
HUMSAT D 31 Aug 10:32:52 10:34:25 12° 92° (E) 10:35:56 437.325/437.525
AIST 1 31 Aug 10:33:31 10:36:53 22° 285° (WNW) 10:40:16
CINEMA 3 31 Aug 10:36:55 10:38:27 12° 296° (WNW) 10:39:58 145.822/145.860
CUSAT 1 31 Aug 10:36:56 10:43:58 73° 81° (E) 10:51:57 437.405
ANTELSAT 31 Aug 10:45:07 10:49:38 60° 75° (ENE) 10:54:03 437.575/2403.000
AIST 2 31 Aug 10:55:35 10:57:54 15° 109° (ESE) 11:00:15 435.215
RS-15 31 Aug 11:00:00 11:12:28 89° 61° (ENE) 11:24:35 29.354- 29.394
DELFI C3 31 Aug 11:05:38 11:09:39 72° 101° (ESE) 11:13:39 145.870
HO-68 31 Aug 11:11:34 11:16:30 20° 301° (WNW) 11:21:26 435.675
TIGRISAT 31 Aug 11:14:49 11:19:23 66° 259° (W) 11:23:52 435.000
GONETS M04 31 Aug 11:18:59 11:26:05 29° 84° (E) 11:33:13
Oscar 11 31 Aug 11:19:19 11:23:08 31° 288° (WNW) 11:26:57 145.826/435.025
QB50P1 31 Aug 11:28:51 11:32:16 24° 70° (ENE) 11:35:40 145.935-145.965
PCSat 31 Aug 11:30:09 11:35:30 68° 114° (ESE) 11:40:54 145.827
FUNcube-1 31 Aug 11:32:45 11:36:01 23° 290° (WNW) 11:39:17 145.935
Cosmos 2499 31 Aug 11:32:51 11:39:08 26° 85° (E) 11:45:03 435.465 / 435.565
POPSAT HIP 1 31 Aug 11:38:54 11:42:38 30° 71° (ENE) 11:46:23 437.405
UNISAT 6 31 Aug 11:45:35 11:49:31 28° 263° (W) 11:53:25 437.425
M-CUBED/EXP-1 PRIME 31 Aug 11:45:59 11:47:43 13° 96° (E) 11:49:23 437.505
SRMSAT 31 Aug 11:55:51 11:57:35 11° 168° (SSE) 11:59:18 437.500
JUGNU 31 Aug 11:57:38 12:01:07 16° 181° (S) 12:04:35 437.505
ZACube-1 31 Aug 11:58:10 11:59:38 12° 294° (WNW) 12:01:06 437.345
DUCHIFAT 1 31 Aug 12:01:14 12:05:20 49° 74° (ENE) 12:09:26 145.980
HUMSAT D 31 Aug 12:06:19 12:10:14 44° 286° (WNW) 12:14:08 437.325/437.525
JAS-2 31 Aug 12:09:40 12:14:21 34° 68° (ENE) 12:19:21 435.910
QB50P2 31 Aug 12:09:45 12:14:01 78° 76° (ENE) 12:18:18 145.880/145.840
AISAT 31 Aug 12:09:47 12:11:56 13° 92° (E) 12:14:03 437.250
DANDE 31 Aug 12:12:07 12:18:03 49° 265° (W) 12:25:23 436.750
POLYITAN 1 31 Aug 12:12:15 12:16:31 80° 78° (ENE) 12:20:48 437.675
NANOSAT C BR1 31 Aug 12:16:56 12:21:11 84° 80° (E) 12:25:28 145.865
ESTCUBE 1 31 Aug 12:16:58 12:21:02 31° 97° (E) 12:25:04 437.505/2401.250
CUSAT 1 31 Aug 12:20:30 12:25:29 20° 273° (W) 12:30:51 437.405
50 SAT 31 Aug 12:21:45 12:23:53 15° 94° (E) 12:26:01 437.505
ANTELSAT 31 Aug 12:25:26 12:26:37 11° 268° (W) 12:27:48 437.575/2403.000
AIST 2 31 Aug 12:32:08 12:36:00 41° 304° (NW) 12:39:56 435.215
BUGSAT 1 31 Aug 12:39:10 12:43:19 56° 75° (ENE) 12:47:29 437.445
SPROUT 31 Aug 12:45:29 12:48:06 16° 93° (E) 12:50:40 437.525
CUBEBUG 1 31 Aug 12:46:06 12:50:19 42° 99° (E) 12:54:29 437.445
Oscar 19 31 Aug 12:48:15 12:51:01 15° 63° (ENE) 12:53:47 437.125/150
VELOX 1 31 Aug 12:54:55 12:59:10 42° 99° (E) 13:03:21 145.980
DX 1 31 Aug 12:58:20 13:02:11 29° 97° (E) 13:06:00 434.975-435.025
QB50P1 31 Aug 13:04:22 13:07:55 25° 264° (W) 13:11:26 145.935-145.965
AUBIESAT-1 31 Aug 13:09:15 13:13:05 61° 290° (WNW) 13:16:37 437.475
GONETS M04 31 Aug 13:13:48 13:22:18 55° 281° (W) 13:30:56
RS-15 31 Aug 13:14:56 13:23:16 22° 261° (W) 13:31:31 29.354- 29.394
POPSAT HIP 1 31 Aug 13:15:18 13:18:24 19° 265° (W) 13:21:31 437.405
PCSat 31 Aug 13:15:55 13:19:23 17° 311° (NW) 13:22:53 145.827
M-CUBED/EXP-1 PRIME 31 Aug 13:18:50 13:22:29 36° 293° (WNW) 13:25:50 437.505
Cosmos 2499 31 Aug 13:23:52 13:31:47 54° 280° (W) 13:39:08 435.465 / 435.565
UKube-1 31 Aug 13:30:28 13:34:43 54° 100° (E) 13:38:57 .
O/OREOS (USA 219) 31 Aug 13:30:31 13:34:51 51° 106° (ESE) 13:39:15 437.305
DUCHIFAT 1 31 Aug 13:39:44 13:41:15 12° 268° (W) 13:42:46 145.980
SRMSAT 31 Aug 13:42:33 13:45:56 16° 178° (S) 13:49:19 437.500
AISAT 31 Aug 13:44:20 13:48:38 47° 287° (WNW) 13:52:53 437.250
AO-85 31 Aug 13:45:49 13:49:36 31° 53° (NE) 13:53:10 145.980
JUGNU 31 Aug 13:47:13 13:49:20 12° 192° (SSW) 13:51:26 437.505
ESTCUBE 1 31 Aug 13:54:10 13:57:37 22° 292° (WNW) 14:01:04 437.505/2401.250
50 SAT 31 Aug 13:54:19 13:57:28 28° 288° (WNW) 14:00:37 437.505
ISS 31 Aug 13:55:12 13:57:44 20° 30° (NNE) 14:00:16 145.825
JAS-2 31 Aug 13:55:23 13:59:34 24° 266° (W) 14:03:57 435.910
ITAMSAT 1 31 Aug 14:12:25 14:14:26 12° 62° (ENE) 14:16:28 435.822/435.867
BUGSAT 1 31 Aug 14:18:37 14:18:59 10° 269° (W) 14:19:23 437.445
SPROUT 31 Aug 14:20:12 14:24:09 36° 288° (WNW) 14:28:03 437.525
CUBEBUG 1 31 Aug 14:23:36 14:26:12 16° 294° (WNW) 14:28:48 437.445
TISAT 1 31 Aug 14:23:44 14:27:45 43° 99° (E) 14:31:43 437.305
Oscar 19 31 Aug 14:24:39 14:29:45 63° 258° (WSW) 14:34:55 437.125/150
Gurwin Techsat 1B 31 Aug 14:29:20 14:34:34 65° 74° (ENE) 14:39:51 435.225
VELOX 1 31 Aug 14:32:32 14:35:14 16° 294° (WNW) 14:37:56 145.980
DX 1 31 Aug 14:34:51 14:38:10 21° 292° (WNW) 14:41:28 434.975-435.025
BEESAT 31 Aug 14:38:51 14:40:03 11° 91° (E) 14:41:14 436.000
AO-7 31 Aug 14:48:14 14:54:45 26° 58° (ENE) 15:01:15 29.400- 29.500
UKube-1 31 Aug 15:08:33 15:10:16 12° 295° (WNW) 15:11:57 .
O/OREOS (USA 219) 31 Aug 15:12:10 15:14:35 14° 303° (WNW) 15:17:00 437.305
ITUPSAT 1 31 Aug 15:26:21 15:30:47 37° 98° (E) 15:35:12 437.325
AO-85 31 Aug 15:26:57 15:29:43 18° 251° (WSW) 15:32:24 145.980
ISS 31 Aug 15:31:12 15:34:19 41° 226° (SW) 15:37:25 145.825
SRMSAT 31 Aug 15:31:29 15:34:18 14° 188° (S) 15:37:07 437.500
ITAMSAT 1 31 Aug 15:48:03 15:53:13 75° 257° (WSW) 15:58:25 435.822/435.867
SWISSCUBE 31 Aug 15:56:47 16:01:34 87° 289° (WNW) 16:06:21 437.505
TISAT 1 31 Aug 16:00:52 16:02:59 14° 294° (WNW) 16:05:05 437.305
Gurwin Techsat 1B 31 Aug 16:12:25 16:14:55 13° 269° (W) 16:17:25 435.225
BEESAT 31 Aug 16:13:28 16:18:12 65° 286° (WNW) 16:22:54 436.000
AO-7 31 Aug 16:38:31 16:46:49 67° 255° (WSW) 16:55:09 29.400- 29.500
KKS-1 31 Aug 16:48:59 16:52:55 30° 97° (E) 16:56:48 437.445
Cosmos 2491 31 Aug 16:58:27 17:03:07 16° 78° (ENE) 17:07:46 435.465 / 435.565
ITUPSAT 1 31 Aug 17:04:52 17:08:20 20° 293° (WNW) 17:11:47 437.325
HORYU 2 31 Aug 17:06:27 17:10:22 31° 71° (ENE) 17:14:17 437.375
STARS 31 Aug 17:13:07 17:16:48 26° 97° (E) 17:20:27 437.465
YUBILEINY 31 Aug 17:14:56 17:23:06 41° 76° (ENE) 17:31:10 435.215
CUBESAT XI-V 31 Aug 17:23:05 17:24:35 11° 91° (E) 17:26:04 437.345
CUTE-I 31 Aug 17:25:28 17:25:42 10° 60° (ENE) 17:25:56 437.470
MOZHAYETS 4 31 Aug 17:25:44 17:30:19 73° 284° (WNW) 17:34:53
BRITE-PL 31 Aug 17:34:28 17:38:36 27° 68° (ENE) 17:43:00 437.365/2234.400
BEESAT 2 31 Aug 18:06:45 18:09:53 21° 51° (NE) 18:13:00 435.950
DOVE 4 31 Aug 18:12:34 18:15:06 14° 63° (ENE) 18:17:38 437.250
BEESAT 3 31 Aug 18:15:22 18:19:15 51° 58° (ENE) 18:23:06 437.485
LilacSat-2 31 Aug 18:22:01 18:25:20 28° 72° (ENE) 18:28:38 437.200
GOMX 1 31 Aug 18:25:25 18:30:11 39° 71° (ENE) 18:35:12 467.674
KKS-1 31 Aug 18:25:54 18:29:16 22° 292° (WNW) 18:32:38 437.445
Cosmos 2504 31 Aug 18:34:19 18:41:08 44° 78° (ENE) 18:47:56 435.465 / 435.565
NOAA 18 31 Aug 18:36:55 18:42:13 48° 71° (ENE) 18:47:30 137.9125
HORYU 2 31 Aug 18:43:36 18:46:55 20° 265° (W) 18:50:15 437.375
NOAA 15 31 Aug 18:46:22 18:51:37 85° 76° (ENE) 18:56:55 137.62
Cubesat XI-IV 31 Aug 18:49:11 18:54:29 69° 74° (ENE) 18:59:48 437.490
STARS 31 Aug 18:49:31 18:53:01 24° 291° (WNW) 18:56:30 437.465
Cosmos 2491 31 Aug 18:49:55 18:58:38 88° 275° (W) 19:07:28 435.465 / 435.565
CUBESAT XI-V 31 Aug 18:57:39 19:02:18 61° 286° (WNW) 19:06:57 437.345
CUTE-I 31 Aug 18:59:34 19:04:54 87° 74° (ENE) 19:10:15 437.470
YUBILEINY 31 Aug 19:11:54 19:19:43 38° 273° (W) 19:27:30 435.215
BRITE-PL 31 Aug 19:12:31 19:16:53 32° 265° (W) 19:21:35 437.365/2234.400
CANX-2 31 Aug 19:27:33 19:29:42 14° 67° (ENE) 19:31:52 2200.000
CUTE 1.7 + AOD 2 31 Aug 19:32:48 19:34:55 14° 67° (ENE) 19:37:02 437.475
BEESAT 2 31 Aug 19:44:13 19:47:42 29° 247° (WSW) 19:51:09 435.950
